Skip Navigation Links
NOAA logo - Click to go to the NOAA homepage
NOAA's National Weather Service
Alaska Aviation Weather Unit
  NWS logo - Click to go to the NWS homepage
Left Navbar Graphic     10 AKDT = 18 GMT

   
NOAA is celebrating 200 years of science, service, and stewardship. Visit the NOAA 200th celebration Web site to learn more.
USA.gov is the U.S. Government's official Web portal to all Federal, state and local government Web resources and services.
Facebook
NWS on Facebook

Important Change Regarding the AAWU Web Presence

 

Over the last several months, the AAWU has been working to navigate its webpages to a nationally supported server. Security, as well as other needs, have necessitated the change.  We have been given an extension for the site changeover while we diligently work at addressing feedback received. As of July 14, 2017, aawu.arh.noaa.gov will be discontinued. The new AAWU web address is weather.gov/aawu. It is now live and will run in-parallel with the old site until it is discontinued on July 14, 2017. Please continue to send any feedback or questions regarding the new webpages to nws.ar.aawu.webauthors@noaa.gov.  Thank you for your patience during this time of transition.
AAWU Home :: Display TAF Add Bookmark
TAF PASC 261728Z 2618/2718  23013KT P6SM FEW030
     FM262200 25012KT P6SM BKN050 BKN100
     FM270500 20005KT P6SM SCT050 BKN100
     FM271000 10008KT P6SM SCT050 SCT100=

3364
FTAK31 PAFA 261728
TAFAOT
TAF
METAR PASC 261253Z 22011KT 10SM OVC032 M01/M03 A3011=

METAR PASC 261353Z 22010KT 10SM OVC036 M01/M03 A3011=

METAR PASC 261453Z 22012KT 10SM OVC038 M01/M04 A3011=

METAR PASC 261553Z 22013KT 10SM BKN034 M01/M04 A3012=

METAR PASC 261653Z 23013KT 10SM FEW031 M01/M03 A3012=

METAR PASC 261753Z 23015KT BKN036 00/M02 A3012=


NOAA's National Weather Service
Alaska Aviation Weather Unit
6930 Sand Lake Road
Anchorage, AK 99502-1845
Disclaimer
Credits
Glossary
Privacy Policy
About Us
Career Opportunities
Contact AAWU Internet Services Site last modified: April, 17th 2012